TimeMDT,TemperatureF,Dew PointF,Humidity,Sea Level PressureIn,VisibilityMPH,Wind Direction,Wind SpeedMPH,Gust SpeedMPH,PrecipitationIn,Events,Conditions,WindDirDegrees,DateUTC
12:51 AM,26.1,24.1,92,30.36,10.0,Calm,Calm,-,N/A,,Clear,0,2013-10-24 06:51:00
1:51 AM,26.1,21.9,84,30.37,10.0,Calm,Calm,-,N/A,,Clear,0,2013-10-24 07:51:00
2:51 AM,25.0,21.0,85,30.37,10.0,Calm,Calm,-,N/A,,Clear,0,2013-10-24 08:51:00
3:51 AM,25.0,21.9,88,30.36,10.0,Calm,Calm,-,N/A,,Clear,0,2013-10-24 09:51:00
4:51 AM,24.1,19.9,84,30.37,10.0,Calm,Calm,-,N/A,,Clear,0,2013-10-24 10:51:00
5:51 AM,21.9,19.9,92,30.38,10.0,Calm,Calm,-,N/A,,Clear,0,2013-10-24 11:51:00
6:51 AM,23.0,19.0,85,30.38,10.0,Calm,Calm,-,N/A,,Clear,0,2013-10-24 12:51:00
7:51 AM,23.0,19.0,85,30.39,10.0,Calm,Calm,-,N/A,,Clear,0,2013-10-24 13:51:00
8:51 AM,28.9,26.1,89,30.39,10.0,Calm,Calm,-,N/A,,Clear,0,2013-10-24 14:51:00
9:51 AM,37.0,33.1,86,30.39,10.0,ESE,5.8,-,N/A,,Mostly Cloudy,110,2013-10-24 15:51:00
11:51 AM,43.0,28.0,56,30.31,-9999.0,SE,4.6,-,N/A,,Unknown,140,2013-10-24 17:51:00
12:51 PM,45.0,28.0,52,30.28,10.0,ESE,6.9,-,N/A,,Clear,120,2013-10-24 18:51:00
1:51 PM,46.0,27.0,47,30.26,10.0,ENE,3.5,-,N/A,,Clear,60,2013-10-24 19:51:00
2:51 PM,46.9,28.0,48,30.24,10.0,SSE,4.6,-,N/A,,Clear,160,2013-10-24 20:51:00
3:51 PM,46.9,28.9,50,30.23,10.0,Variable,6.9,-,N/A,,Clear,0,2013-10-24 21:51:00
4:51 PM,46.9,28.9,50,30.22,10.0,SE,5.8,-,N/A,,Clear,130,2013-10-24 22:51:00
5:51 PM,39.0,30.0,70,30.21,10.0,SE,6.9,-,N/A,,Clear,140,2013-10-24 23:51:00
6:51 PM,32.0,28.0,85,30.20,10.0,SSE,6.9,-,N/A,,Clear,150,2013-10-25 00:51:00
7:51 PM,33.1,28.9,85,30.19,10.0,SE,5.8,-,N/A,,Clear,140,2013-10-25 01:51:00
8:51 PM,34.0,28.9,82,30.18,10.0,ESE,6.9,-,N/A,,Clear,120,2013-10-25 02:51:00
9:51 PM,33.1,28.9,85,30.18,10.0,SE,10.4,-,N/A,,Clear,140,2013-10-25 03:51:00
10:51 PM,33.1,28.9,85,30.16,10.0,ESE,6.9,-,N/A,,Clear,120,2013-10-25 04:51:00
11:51 PM,32.0,28.9,88,30.19,10.0,East,4.6,-,N/A,,Clear,100,2013-10-25 05:51:00